Miscellaneous Local Product
Issued by NWS Hastings, NE

Home | Current Version | Previous Version | Graphics & Text | Print | Product List | Glossary On
Versions: 1 2 3 4 5 6 7 8 9 10 11 12 13 14 15 16 17 18 19 20 21 22 23 24 25 26 27 28 29 30 31 32 33 34 35 36 37 38 39 40 41 42 43 44 45 46 47 48 49 50
000
AXUS43 KGID 260402
MISGRI

GID CWA HOURLY WEATHER ROUNDUP
NATIONAL WEATHER SERVICE HASTINGS NE
1000 PM CST WED FEB 25 2015

NOTE: "FAIR" INDICATES FEW OR NO CLOUDS BELOW 12,000 FEET WITH NO
SIGNIFICANT WEATHER AND/OR OBSTRUCTIONS TO VISIBILITY.

...SOUTH CENTRAL NEBRASKA...

CITY           SKY/WX    TMP DP  RH WIND       PRES   REMARKS
GRAND ISLAND   CLOUDY    13   6  74 N23       30.25R WCI  -6
HASTINGS       PTCLDY    14   6  70 N25G33    30.22R WCI  -5
KEARNEY        CLOUDY    16   9  73 N22       30.23R WCI  -2
ORD            CLOUDY    11   2  67 N18G29    30.27R WCI  -7
YORK           FLURRIES  16  10  79 N21G35    30.22R WCI  -2
AURORA         CLOUDY    15   8  75 N21G29    30.23R WCI  -3
LEXINGTON      CLOUDY    17   9  69 N16G25    30.22R WCI   2
HOLDREGE       CLOUDY    16   7  67 N18       30.22R WCI   0
HEBRON         CLOUDY    18  10  70 N15G24    30.22R WCI   4

...NEBRASKA PANHANDLE...

CITY           SKY/WX    TMP DP  RH WIND       PRES   REMARKS
CHADRON        FLURRIES  14   9  80 N14       30.29R WCI  -1
ALLIANCE       CLOUDY    15   8  73 N21       30.21R WCI  -2
SCOTTSBLUFF    CLOUDY    19  11  70 NE13      30.23R WCI   6
SIDNEY         LGT SNOW  20  16  84 NE18      30.16R FOG     WCI   5

...WESTERN AND NORTH CENTRAL NEBRASKA...

CITY           SKY/WX    TMP DP  RH WIND       PRES   REMARKS
VALENTINE      CLOUDY    10   3  73 N13G24    30.31R WCI  -5
AINSWORTH      CLOUDY    10   4  78 N16       30.29R WCI  -8
ONEILL         PTCLDY     7   2  79 N20       30.29R WCI -12
BROKEN BOW     CLOUDY    14   6  70 N21       30.24R WCI  -4
IMPERIAL         N/A     19  11  70 NE17      30.21R WCI   4
NORTH PLATTE   CLOUDY    15   6  67 N14G24    30.26R WCI   0
MCCOOK         CLOUDY    21  11  65 N17       30.22R WCI   7

...EASTERN NEBRASKA...

CITY           SKY/WX    TMP DP  RH WIND       PRES   REMARKS
NORFOLK        CLOUDY     9   3  77 N24G31    30.26R WCI -12
SO SIOUX CITY  PTCLDY    10   1  67 N21G31    30.29R WCI  -9
TEKAMAH        MOCLDY    12   4  70 N22G31    30.27R WCI  -7
COLUMBUS       CLOUDY    12   1  62 N13       30.25R WCI  -3
ALBION         PTCLDY    10   2  72 N18G29    30.26R WCI  -9
OMAHA EPPLEY   CLOUDY    13   6  74 N23G30    30.23R WCI  -6
OFFUTT AFB     FLURRIES  14   7  73 N18G26    30.21R WCI  -3
MILLARD        LGT SNOW  15   8  76 N9G22     30.22R WCI   3
LINCOLN        CLOUDY    15   8  73 N23       30.23R WCI  -3
NEBRASKA CITY  PTCLDY    15   7  70 N22G29    30.18R WCI  -3
BEATRICE       MOCLDY    17  10  75 N18G26    30.20R WCI   0
FALLS CITY     CLOUDY    18   9  68 N24G33    30.14R WCI   0

...NORTHERN KANSAS...

CITY           SKY/WX    TMP DP  RH WIND       PRES   REMARKS
GOODLAND       MOCLDY    23  18  81 NE20G25   30.11R WCI   8
HILL CITY      CLOUDY    21  12  68 N17       30.20R WCI   7
NORTON         CLOUDY    19   9  63 N20G25    30.22  WCI   4
PHILLIPSBURG   CLOUDY    21  10  63 N18G25    30.24R WCI   6
SMITH CENTER   PTCLDY    18   9  68 N22G33    30.22R WCI   0
BELOIT         CLOUDY    21  10  63 N23G29    30.20R WCI   5
HAYS           CLOUDY    21   7  53 N28G36    30.17R WCI   3
RUSSELL        CLOUDY    22  13  68 N25G37    30.15R WCI   5
CONCORDIA      CLOUDY    20  11  68 N23G32    30.19R WCI   3
SALINA         CLOUDY    25  14  63 N26G38    30.15R WCI   9
TOPEKA         MOCLDY    21  12  68 N23G32    30.11R WCI   5



USA.gov is the U.S. government's official web portal to all federal, state and local government web resources and services.